FW7166 Weather Reports


Display with metric or nautical units.
time (UTC)temp
F
wind
direction
speed
MPH
gust
MPH
rain 1hr
in
rain 24hr
in
rain mn
in
humidity
%
barometer
mb
20260504002517 49 334 0.0 14.0 0.03 0.00 0.03 95 1009.4
20260504002017 49 334 0.0 14.0 0.01 0.00 0.01 94 1009.6
20260504001517 49 334 0.0 14.0 0.01 0.00 0.01 94 1009.7
20260504001016 49 334 0.0 14.0 0.01 0.00 0.01 94 1009.2
20260504000515 49 334 0.0 14.0 0.00 0.00 0.00 94 1009.7
20260504000014 49 334 0.0 14.0 0.00 0.00 0.00 94 1009.6
20260503235513 49 334 0.0 14.0 0.00 0.00 0.00 94 1009.8
20260503235012 49 334 0.0 14.0 0.00 0.00 0.00 94 1010.3
20260503234512 49 334 0.0 14.0 0.00 0.00 0.00 94 1010.4
20260503234012 49 334 0.0 14.0 0.00 0.00 0.00 94 1010.0
20260503233512 49 334 0.0 14.0 0.00 0.00 0.00 94 1009.9
20260503233011 49 334 0.0 14.0 0.00 0.00 0.00 93 1010.1
20260503232511 49 334 0.0 14.0 0.00 0.00 0.00 93 1009.8
20260503232010 49 334 0.0 14.0 0.00 0.00 0.00 93 1009.6
20260503231509 49 334 0.0 14.0 0.00 0.00 0.00 92 1009.7
20260503231009 49 334 0.0 14.0 0.00 0.00 0.00 93 1009.7
20260503230509 49 334 0.0 14.0 0.00 0.00 0.00 93 1009.7
20260503225452 49 334 0.0 14.0 0.00 0.00 0.00 92 1010.0
20260503224951 49 334 0.0 14.0 0.00 0.00 0.00 92 1009.6
20260503224450 49 334 0.0 14.0 0.00 0.00 0.00 93 1009.9
20260503223950 49 334 0.0 14.0 0.00 0.00 0.00 93 1010.5
20260503223450 49 334 0.0 14.0 0.00 0.00 0.00 92 1010.3
20260503222950 49 334 0.0 14.0 0.00 0.00 0.00 92 1009.9
20260503222450 49 334 0.0 14.0 0.00 0.00 0.00 91 1009.8
20260503221950 49 334 0.0 14.0 0.00 0.00 0.00 91 1009.8
20260503221450 49 334 0.0 14.0 0.00 0.00 0.00 91 1009.9
20260503220949 49 334 0.0 14.0 0.00 0.00 0.00 91 1010.0
20260503220449 49 334 0.0 14.0 0.00 0.00 0.00 91 1010.0
20260503215949 49 334 0.0 14.0 0.00 0.00 0.00 90 1010.1
20260503215448 49 334 0.0 14.0 0.00 0.00 0.00 90 1010.0
20260503214947 49 334 0.0 14.0 0.00 0.00 0.00 90 1009.8
20260503214447 49 334 1.0 14.0 0.00 0.00 0.00 90 1009.7
20260503213946 49 205 0.0 14.0 0.00 0.00 0.00 90 1010.5
20260503213446 49 205 0.0 14.0 0.00 0.00 0.00 90 1010.5
20260503212945 49 205 0.0 14.0 0.00 0.00 0.00 90 1011.0
20260503212444 49 205 0.0 14.0 0.00 0.00 0.00 89 1010.7
20260503211429 49 205 0.0 14.0 0.00 0.00 0.00 88 1010.7
20260503210929 49 205 0.0 14.0 0.00 0.00 0.00 88 1010.6
20260503210429 49 205 0.0 14.0 0.00 0.00 0.00 88 1010.7
20260503205928 49 205 0.0 14.0 0.00 0.00 0.00 88 1010.6
20260503205427 49 205 0.0 14.0 0.00 0.00 0.00 88 1010.7
20260503204926 49 205 0.0 14.0 0.00 0.00 0.00 88 1010.7
20260503203355 49 205 0.0 14.0 0.00 0.00 0.00 87 1011.0
20260503202855 49 205 0.0 14.0 0.00 0.00 0.00 87 1011.1
20260503201839 50 205 0.0 14.0 0.00 0.00 0.00 87 1010.9
20260503201339 50 205 0.0 14.0 0.00 0.00 0.00 86 1011.0
20260503200838 50 205 0.0 14.0 0.00 0.00 0.00 86 1011.1
20260503200338 50 205 0.0 14.0 0.00 0.00 0.00 86 1011.1
20260503195838 50 205 0.0 14.0 0.00 0.00 0.00 86 1011.4
20260503195337 50 205 0.0 14.0 0.00 0.00 0.00 85 1011.2
20260503194838 51 205 0.0 14.0 0.00 0.00 0.00 85 1010.9
20260503194337 51 205 0.0 14.0 0.00 0.00 0.00 85 1011.2
20260503193836 51 205 0.0 14.0 0.00 0.00 0.00 85 1011.2
20260503193336 51 205 0.0 14.0 0.00 0.00 0.00 84 1011.0
20260503192836 51 205 0.0 14.0 0.00 0.00 0.00 84 1011.2
20260503192335 51 205 0.0 14.0 0.00 0.00 0.00 84 1011.3
20260503191835 51 205 0.0 14.0 0.00 0.00 0.00 84 1011.4
20260503191334 52 205 0.0 14.0 0.00 0.00 0.00 84 1011.3
20260503190317 52 205 0.0 14.0 0.00 0.00 0.00 84 1011.2
20260503185816 52 205 0.0 14.0 0.00 0.00 0.00 83 1011.4
20260503185315 52 205 0.0 14.0 0.00 0.00 0.00 83 1011.4
20260503184815 52 205 0.0 14.0 0.00 0.00 0.00 83 1011.6
20260503184315 52 205 0.0 14.0 0.00 0.00 0.00 83 1011.4
20260503183815 53 205 0.0 14.0 0.00 0.00 0.00 82 1011.3
20260503183314 53 205 0.0 14.0 0.00 0.00 0.00 82 1011.6
20260503182300 53 205 0.0 14.0 0.00 0.00 0.00 81 1011.0
20260503181759 54 205 0.0 14.0 0.00 0.00 0.00 81 1011.3
20260503181258 54 205 0.0 14.0 0.00 0.00 0.00 80 1011.3
20260503180758 54 205 0.0 14.0 0.00 0.00 0.00 80 1011.3
20260503180257 54 205 0.0 14.0 0.00 0.00 0.00 79 1011.3
20260503175756 54 205 0.0 14.0 0.00 0.00 0.00 79 1011.2
20260503175255 55 205 0.0 14.0 0.00 0.00 0.00 79 1011.3
20260503174756 55 205 0.0 14.0 0.00 0.00 0.00 78 1011.4
20260503174256 55 205 0.0 14.0 0.00 0.00 0.00 78 1011.3
20260503173755 55 203 0.0 14.0 0.00 0.00 0.00 78 1011.7
20260503173255 55 203 0.0 14.0 0.00 0.00 0.00 78 1011.5
20260503172754 55 204 1.0 14.0 0.00 0.00 0.00 78 1011.9
20260503172253 55 179 0.0 14.0 0.00 0.00 0.00 77 1011.7
20260503171754 55 205 0.0 14.0 0.00 0.00 0.00 78 1011.6
20260503171252 55 185 0.0 14.0 0.00 0.00 0.00 78 1011.8
20260503170752 55 169 1.0 14.0 0.00 0.00 0.00 78 1011.9
20260503170251 55 172 1.0 14.0 0.00 0.00 0.00 78 1011.5
20260503150658 55 202 1.0 14.0 0.00 0.00 0.00 80 1011.9
20260503150157 55 219 2.0 14.0 0.00 0.00 0.00 80 1012.2
20260503140125 55 199 1.0 14.0 0.00 0.00 0.00 81 1013.0
20260503131050 55 227 2.0 14.0 0.00 0.00 0.00 79 1012.5
20260503130550 55 157 0.0 14.0 0.00 0.00 0.00 80 1013.1
20260503110440 56 179 2.0 14.0 0.00 0.00 0.00 79 1012.9
20260503090415 55 161 2.0 14.0 0.00 0.00 0.00 81 1013.0
20260503081326 57 190 3.0 14.0 0.00 0.00 0.00 78 1012.6
20260503080826 57 249 1.0 14.0 0.00 0.00 0.00 78 1012.1
20260503080325 57 210 3.0 14.0 0.00 0.00 0.00 78 1012.3
20260503072807 56 154 2.0 14.0 0.00 0.00 0.00 81 1012.2
20260503072306 55 161 1.0 14.0 0.00 0.00 0.00 80 1012.2
20260503071250 56 221 2.0 14.0 0.00 0.00 0.00 80 1011.8
20260503070750 56 222 2.0 14.0 0.00 0.00 0.00 80 1011.8
20260503070249 56 211 2.0 14.0 0.00 0.00 0.00 81 1012.3
20260503060227 54 175 2.0 14.0 0.00 0.00 0.00 88 1011.9
20260503054711 53 182 0.0 14.0 0.00 0.00 0.00 89 1012.1
20260503054211 53 204 0.0 14.0 0.00 0.00 0.00 89 1012.2
20260503053711 53 135 0.0 14.0 0.00 0.00 0.00 89 1012.2
20260503052654 52 161 2.0 14.0 0.00 0.00 0.00 88 1012.0
20260503052154 52 136 1.0 14.0 0.00 0.00 0.00 88 1011.8
20260503051653 52 133 0.0 14.0 0.00 0.00 0.00 87 1011.9
20260503050638 52 132 0.0 14.0 0.00 0.00 0.00 87 1011.8
20260503050137 52 141 0.0 14.0 0.00 0.00 0.00 88 1011.8
20260503045637 51 183 1.0 14.0 0.00 0.00 0.00 88 1011.8
20260503045137 51 183 0.0 14.0 0.00 0.00 0.00 88 1011.8
20260503044636 51 183 0.0 14.0 0.00 0.00 0.00 87 1011.8
20260503044135 51 183 0.0 14.0 0.00 0.00 0.00 87 1011.8
20260503043635 51 183 0.0 14.0 0.00 0.00 0.00 87 1011.8
20260503043134 51 183 0.0 14.0 0.00 0.00 0.00 87 1011.8
20260503042634 51 183 0.0 14.0 0.00 0.00 0.00 87 1011.9
20260503042134 51 183 0.0 14.0 0.00 0.00 0.00 87 1011.9
20260503041633 51 183 0.0 14.0 0.00 0.00 0.00 88 1012.0
20260503041133 51 183 0.0 14.0 0.00 0.00 0.00 88 1012.0
20260503040632 50 183 0.0 14.0 0.00 0.00 0.00 88 1011.9
20260503040132 50 183 0.0 14.0 0.00 0.00 0.00 88 1011.9
20260503035117 50 183 0.0 14.0 0.00 0.00 0.00 87 1012.0
20260503034616 50 183 0.0 14.0 0.00 0.00 0.00 86 1012.1
20260503034115 50 183 0.0 14.0 0.00 0.00 0.00 86 1011.9
20260503033615 50 183 0.0 14.0 0.00 0.00 0.00 85 1012.1
20260503033115 50 183 0.0 14.0 0.00 0.00 0.00 84 1012.3
20260503032615 51 183 0.0 14.0 0.00 0.00 0.00 83 1012.2
20260503032115 51 183 0.0 14.0 0.00 0.00 0.00 83 1012.3
20260503031614 51 183 0.0 14.0 0.00 0.00 0.00 83 1012.1
20260503031114 51 183 0.0 14.0 0.00 0.00 0.00 83 1012.2
20260503030614 51 183 0.0 14.0 0.00 0.00 0.00 83 1011.8
20260503030113 52 183 0.0 14.0 0.00 0.00 0.00 83 1011.9
20260503025613 52 183 0.0 14.0 0.00 0.00 0.00 83 1012.2
20260503025113 52 183 0.0 14.0 0.00 0.00 0.00 83 1012.1
20260503024612 52 183 0.0 14.0 0.00 0.00 0.00 83 1011.8
20260503024112 52 183 0.0 14.0 0.00 0.00 0.00 83 1012.2
20260503023611 52 184 0.0 14.0 0.00 0.00 0.00 83 1012.3
20260503023110 52 182 0.0 14.0 0.00 0.00 0.00 83 1012.1
20260503022610 52 181 0.0 14.0 0.00 0.00 0.00 82 1012.2
20260503022110 52 181 0.0 14.0 0.00 0.00 0.00 82 1012.2
20260503021610 52 181 0.0 14.0 0.00 0.00 0.00 82 1012.4
20260503021110 53 181 0.0 14.0 0.00 0.00 0.00 81 1012.3
20260503020610 53 181 0.0 14.0 0.00 0.00 0.00 81 1012.5
20260503015554 53 181 0.0 14.0 0.00 0.00 0.00 80 1012.4
20260503015053 53 181 0.0 14.0 0.00 0.00 0.00 80 1012.5
20260503014552 53 181 0.0 14.0 0.00 0.00 0.00 79 1012.5
20260503014051 54 181 0.0 14.0 0.00 0.00 0.00 78 1012.8
20260503013036 54 181 0.0 14.0 0.00 0.00 0.00 78 1012.7
20260503012535 54 185 1.0 14.0 0.00 0.00 0.00 78 1012.7
20260503012034 54 196 0.0 14.0 0.00 0.00 0.00 77 1012.4
20260503011534 54 170 0.0 14.0 0.00 0.00 0.00 76 1012.6
20260503011034 54 170 0.0 14.0 0.00 0.00 0.00 76 1012.7
20260503010534 54 170 0.0 14.0 0.00 0.00 0.00 76 1012.4
20260503010033 54 170 0.0 14.0 0.00 0.00 0.00 75 1012.6
20260503005533 55 169 0.0 14.0 0.00 0.00 0.00 74 1012.8
20260503005032 55 169 0.0 14.0 0.00 0.00 0.00 73 1012.6
20260503004531 55 169 0.0 14.0 0.00 0.00 0.00 72 1012.6
20260503004031 55 169 0.0 14.0 0.00 0.00 0.00 71 1012.6
20260503003530 55 169 0.0 14.0 0.00 0.00 0.00 71 1012.8
20260503003029 56 169 0.0 14.0 0.00 0.00 0.00 70 1012.9